Location: Paddlesworth
(51.1000°N, 1.1333°E)
Time: 18:46:28
(UTC+00:00)

USA 215 - Pass Details

Date: 11 May 2021
Orbit: 1100 x 1107 km, 123.0° (Epoch: 14 June)

Event Time Altitude Azimuth Distance (km) Brightness Sun altitude
Exits shadow 23:13:58 10° 114° (ESE) 2,933 5.2 -20.3°
Maximum altitude 23:20:26 85° 28° (NNE) 1,112 3.3 -20.4°
Drops below altitude 10° 23:27:01 10° 300° (WNW) 2,966 6.0 -20.6°
Sets 23:29:30 0° 300° (WNW) 3,926 6.7 -20.6°
